NORTHERN QUEENS  -  Freeze Warning Freeze Warning        SOUTHERN QUEENS  -  Freeze Warning Freeze Warning      

Active alerts

Northern Queens
  Details for Northern Queens Freeze Warning
Southern Queens
  Details for Southern Queens Freeze Warning


WXM80 ListenWXM80 Stop

You find our weather info also at:

UK Metoffice

WeatherCloud

Weather Underground

Northeastern Weather Network

AWEKAS

Citizen Weather Observer Program (CWOP)

HAMweather, WeatherForYou, PWS Weather


Weather Underground History page Text

Daily Summary for January 11, 2017 Units:  Metric    English   Both
« Previous Day
Next Day »
Daily Weekly Monthly Yearly Custom
  High: Low: Average:
Temperature: 11.9 °C 6.5 °C 8.4 °C
Dew Point: 7.6 °C 4.4 °C 5.8 °C
Humidity: 96 % 64 % 84 %
Wind Speed: 23.3 km/h 0 km/h 5.8 km/h
Wind Gust: 35.4 km/h - -
Wind:- - SSW
Pressure: 1026 hPa 1020.2 hPa -
Precipitation: 4.83 mm    
Historical Graphs
 
 
Tabular Data for January 11, 2017
Time Temperature Dew Point Pressure Wind Wind Speed Wind Gust Humidity Rainfall Rate (Hourly)
00:00 7.6 °C 5.2 °C 1021.9 hPa South 8.4 km/h 14.8 km/h 85 % 0 mm
00:05 7.6 °C 5.2 °C 1021.6 hPa SSW 6.9 km/h 18.5 km/h 85 % 0 mm
00:10 7.7 °C 5.3 °C 1021.6 hPa South 8.9 km/h 11.3 km/h 85 % 0 mm
00:15 7.7 °C 5.3 °C 1021.6 hPa SSW 9.3 km/h 20.4 km/h 85 % 0 mm
00:20 7.7 °C 5.3 °C 1021.6 hPa South 8.2 km/h 12.9 km/h 85 % 0 mm
00:25 7.7 °C 5.3 °C 1021.2 hPa South 9.8 km/h 18.5 km/h 85 % 0 mm
00:30 7.7 °C 5.3 °C 1021.2 hPa South 7.2 km/h 12.9 km/h 85 % 0 mm
00:36 7.8 °C 5.4 °C 1021.2 hPa SSW 6.3 km/h 13 km/h 85 % 0 mm
00:41 7.8 °C 5.4 °C 1021.2 hPa SSW 6.3 km/h 11.1 km/h 85 % 0 mm
00:46 7.8 °C 5.4 °C 1021.2 hPa SSW 10.3 km/h 18.5 km/h 85 % 0 mm
00:51 7.8 °C 5.4 °C 1021.2 hPa SSW 5.5 km/h 11.1 km/h 85 % 0 mm
00:56 7.8 °C 5.4 °C 1021.2 hPa South 1.1 km/h 8 km/h 85 % 0 mm
01:01 7.9 °C 5.7 °C 1021.2 hPa SSW 9 km/h 11.3 km/h 86 % 0 mm
01:06 7.9 °C 5.7 °C 1021.2 hPa SW 6.3 km/h 11.1 km/h 86 % 0 mm
01:11 7.9 °C 5.7 °C 1021.2 hPa SSW 5.5 km/h 9.3 km/h 86 % 0 mm
01:16 7.9 °C 5.8 °C 1021.2 hPa South 6.6 km/h 11.1 km/h 87 % 0 mm
01:21 7.9 °C 5.8 °C 1021.6 hPa SW 7.4 km/h 12.9 km/h 87 % 0 mm
01:26 7.9 °C 5.8 °C 1021.6 hPa SW 4.7 km/h 11.1 km/h 87 % 0 mm
01:31 7.9 °C 6 °C 1021.6 hPa SSW 6.1 km/h 9.7 km/h 88 % 0 mm
01:36 7.9 °C 6.2 °C 1021.9 hPa WSW 5.3 km/h 11.1 km/h 89 % 0 mm
01:41 7.8 °C 6.1 °C 1021.9 hPa SW 6.8 km/h 14.8 km/h 89 % 0 mm
01:47 7.7 °C 6 °C 1021.9 hPa SW 1.9 km/h 7.4 km/h 89 % 0 mm
01:52 7.7 °C 6.1 °C 1021.9 hPa SSW 1.6 km/h 7.4 km/h 90 % 0 mm
01:57 7.6 °C 6 °C 1022.2 hPa SSW 7.4 km/h 11.3 km/h 90 % 0 mm
02:02 7.5 °C 6.1 °C 1021.9 hPa WSW 6.9 km/h 14.8 km/h 91 % 0 mm
02:07 7.4 °C 6.2 °C 1021.9 hPa SW 7.4 km/h 11.1 km/h 92 % 0 mm
02:12 7.4 °C 6.2 °C 1021.9 hPa WSW 10.5 km/h 16.7 km/h 92 % 0 mm
02:17 7.4 °C 6.3 °C 1021.6 hPa SSW 10.5 km/h 16.7 km/h 93 % 0.25 mm
02:22 7.4 °C 6.3 °C 1021.6 hPa SSW 7.2 km/h 14.8 km/h 93 % 0.25 mm
02:27 7.4 °C 6.5 °C 1021.6 hPa SW 9 km/h 24.1 km/h 94 % 0.25 mm
02:32 7.4 °C 6.5 °C 1021.2 hPa SSW 10 km/h 19.3 km/h 94 % 0.25 mm
02:37 7.4 °C 6.5 °C 1021.6 hPa SSW 7.9 km/h 14.8 km/h 94 % 0.51 mm
02:42 7.3 °C 6.4 °C 1021.2 hPa SSW 12.1 km/h 16.7 km/h 94 % 0.76 mm
02:47 7.3 °C 6.4 °C 1021.2 hPa SSW 9.3 km/h 18.5 km/h 94 % 0.76 mm
02:52 7.3 °C 6.4 °C 1021.2 hPa SSW 4.7 km/h 8 km/h 94 % 0.76 mm
02:57 7.3 °C 6.6 °C 1021.2 hPa SSW 8.9 km/h 11.1 km/h 95 % 1.02 mm
03:03 7.3 °C 6.6 °C 1020.9 hPa SSW 7.7 km/h 16.7 km/h 95 % 1.02 mm
03:08 7.3 °C 6.6 °C 1020.9 hPa South 7.6 km/h 13 km/h 95 % 1.02 mm
03:13 7.3 °C 6.6 °C 1020.9 hPa South 7.6 km/h 16.7 km/h 95 % 1.27 mm
03:18 7.3 °C 6.6 °C 1020.5 hPa East 9.2 km/h 16.7 km/h 95 % 1.27 mm
03:23 7.3 °C 6.6 °C 1020.5 hPa South 11.7 km/h 14.8 km/h 95 % 1.27 mm
03:28 7.3 °C 6.6 °C 1020.2 hPa SSW 6.6 km/h 18.5 km/h 95 % 1.52 mm
03:33 7.3 °C 6.6 °C 1020.5 hPa SSW 13.5 km/h 27.8 km/h 95 % 1.52 mm
03:38 7.4 °C 6.7 °C 1020.5 hPa SSW 15.6 km/h 25.7 km/h 95 % 1.52 mm
03:43 7.5 °C 6.8 °C 1020.2 hPa SW 8.9 km/h 24.1 km/h 95 % 1.27 mm
03:48 7.6 °C 6.9 °C 1020.2 hPa SW 11.1 km/h 25.9 km/h 95 % 1.27 mm
03:53 7.7 °C 6.9 °C 1020.2 hPa South 12.9 km/h 19.3 km/h 95 % 1.52 mm
03:58 7.8 °C 7 °C 1020.2 hPa SW 15.9 km/h 31.5 km/h 95 % 1.27 mm
04:03 7.8 °C 7.1 °C 1020.2 hPa WSW 9.3 km/h 35.4 km/h 95 % 1.27 mm
04:08 7.9 °C 7.2 °C 1020.2 hPa SSW 14.6 km/h 22.2 km/h 95 % 1.27 mm
04:13 8 °C 7.2 °C 1020.2 hPa SSW 9.7 km/h 16.7 km/h 95 % 1.27 mm
04:19 8.1 °C 7.3 °C 1020.5 hPa SSW 11.7 km/h 16.7 km/h 95 % 1.02 mm
04:24 8.1 °C 7.3 °C 1020.2 hPa SSW 23.3 km/h 35.2 km/h 95 % 1.02 mm
04:29 8.1 °C 7.3 °C 1020.5 hPa SW 16.6 km/h 22.2 km/h 95 % 0.76 mm
04:34 8.2 °C 7.4 °C 1020.5 hPa SSE 13.4 km/h 22.2 km/h 95 % 0.76 mm
04:39 8.2 °C 7.4 °C 1020.5 hPa WSW 11.6 km/h 17.7 km/h 95 % 0.51 mm
04:44 8.2 °C 7.4 °C 1020.5 hPa SSW 9.7 km/h 29 km/h 95 % 0 mm
04:49 8.2 °C 7.4 °C 1020.5 hPa SSW 11.3 km/h 29 km/h 95 % 0 mm
04:54 8.2 °C 7.4 °C 1020.5 hPa SSW 9.7 km/h 27.4 km/h 95 % 0 mm
04:55 8.2 °C 7.4 °C 1020.5 hPa SW 13 km/h 16.7 km/h 95 % 0.25 mm
05:00 8.2 °C 7.3 °C 1020.5 hPa WSW 15.8 km/h 16.7 km/h 94 % 0.25 mm
05:05 8.2 °C 7.3 °C 1020.5 hPa SW 16.4 km/h 19.3 km/h 94 % 0.25 mm
05:10 8.1 °C 7.2 °C 1020.5 hPa SW 12.2 km/h 20.4 km/h 94 % 0 mm
05:15 8.1 °C 7.2 °C 1020.9 hPa South 10 km/h 25.9 km/h 94 % 0 mm
05:20 8.1 °C 7.2 °C 1020.9 hPa SW 13.8 km/h 27.4 km/h 94 % 0 mm
05:25 8.1 °C 7.2 °C 1020.9 hPa WSW 11.9 km/h 27.8 km/h 94 % 0 mm
05:30 8.1 °C 7.1 °C 1020.9 hPa SW 10.1 km/h 16.7 km/h 93 % 0 mm
05:35 8.1 °C 7 °C 1021.2 hPa SW 16.4 km/h 22.2 km/h 93 % 0 mm
05:40 8.1 °C 7 °C 1020.9 hPa SSE 11.6 km/h 18.5 km/h 93 % 0 mm
05:45 8.1 °C 6.8 °C 1021.2 hPa South 13 km/h 18.5 km/h 92 % 0 mm
05:51 8.1 °C 6.8 °C 1021.2 hPa WSW 11.4 km/h 22.2 km/h 92 % 0 mm
05:56 8.1 °C 6.8 °C 1021.6 hPa SSW 10.3 km/h 16.7 km/h 92 % 0 mm
06:01 8.1 °C 6.8 °C 1021.6 hPa SSW 13.7 km/h 19.3 km/h 92 % 0 mm
06:06 8.1 °C 6.8 °C 1021.9 hPa South 8 km/h 18.5 km/h 92 % 0 mm
06:11 8 °C 6.6 °C 1021.9 hPa WSW 8 km/h 14.8 km/h 91 % 0 mm
06:16 7.9 °C 6.6 °C 1021.6 hPa SSW 14.2 km/h 22.2 km/h 91 % 0 mm
06:21 7.9 °C 6.5 °C 1021.9 hPa WSW 11.6 km/h 18.5 km/h 91 % 0 mm
06:26 7.8 °C 6.4 °C 1022.2 hPa South 13.2 km/h 18.5 km/h 91 % 0 mm
06:31 7.8 °C 6.2 °C 1022.2 hPa WSW 14.2 km/h 27.8 km/h 90 % 0 mm
06:36 7.8 °C 6.2 °C 1022.2 hPa SSW 16.4 km/h 18.5 km/h 90 % 0 mm
06:41 7.7 °C 6.1 °C 1022.6 hPa SW 18.8 km/h 31.5 km/h 90 % 0 mm
06:46 7.7 °C 6.1 °C 1022.9 hPa SSW 10.5 km/h 20.4 km/h 90 % 0 mm
06:51 7.6 °C 5.8 °C 1022.9 hPa WSW 8.2 km/h 19.3 km/h 89 % 0 mm
06:56 7.5 °C 5.8 °C 1023.2 hPa SSW 9.7 km/h 17.7 km/h 89 % 0 mm
07:11 7.2 °C 5.6 °C 1023.9 hPa West 4.8 km/h 11.1 km/h 89 % 0 mm
07:16 7.1 °C 5.4 °C 1023.6 hPa SW 3.2 km/h 7.4 km/h 89 % 0 mm
07:21 7.1 °C 5.4 °C 1023.9 hPa SSW 6.4 km/h 9.3 km/h 89 % 0 mm
07:26 6.9 °C 5.2 °C 1023.9 hPa SW 5.1 km/h 9.3 km/h 89 % 0 mm
07:31 6.8 °C 5.2 °C 1023.9 hPa West 7.4 km/h 12.9 km/h 89 % 0 mm
07:36 6.7 °C 5.1 °C 1023.9 hPa SW 5.3 km/h 8 km/h 89 % 0 mm
07:41 6.7 °C 5 °C 1023.9 hPa WSW 6 km/h 8 km/h 89 % 0 mm
07:47 6.6 °C 4.9 °C 1023.9 hPa SSW 5.1 km/h 16.7 km/h 89 % 0 mm
07:52 6.6 °C 4.9 °C 1023.9 hPa SSW 7.6 km/h 14.8 km/h 89 % 0 mm
07:57 6.5 °C 4.8 °C 1024.3 hPa SSW 6.3 km/h 9.3 km/h 89 % 0 mm
08:02 6.5 °C 4.8 °C 1024.3 hPa WSW 5.3 km/h 14.8 km/h 89 % 0 mm
08:07 6.5 °C 4.8 °C 1024.3 hPa SW 5.3 km/h 11.3 km/h 89 % 0 mm
08:12 6.5 °C 4.8 °C 1024.3 hPa SSW 10.5 km/h 16.7 km/h 89 % 0 mm
08:17 6.5 °C 4.8 °C 1024.3 hPa SW 8.5 km/h 16.7 km/h 89 % 0 mm
08:22 6.6 °C 4.9 °C 1024.3 hPa SSW 12.1 km/h 18.5 km/h 89 % 0 mm
08:27 6.6 °C 4.9 °C 1024.3 hPa SW 13.4 km/h 18.5 km/h 89 % 0 mm
08:32 6.7 °C 4.8 °C 1024.3 hPa SW 8.4 km/h 14.8 km/h 88 % 0 mm
08:37 6.7 °C 4.9 °C 1024.6 hPa West 11.4 km/h 18.5 km/h 88 % 0 mm
08:42 6.8 °C 5 °C 1024.9 hPa SSW 9.2 km/h 13 km/h 88 % 0 mm
08:47 6.9 °C 4.9 °C 1024.9 hPa WSW 8.5 km/h 13 km/h 87 % 0 mm
08:52 7 °C 5 °C 1024.9 hPa SW 10.8 km/h 14.8 km/h 87 % 0 mm
08:57 7.1 °C 5.1 °C 1024.9 hPa SSW 6.3 km/h 17.7 km/h 87 % 0 mm
09:02 7.2 °C 5 °C 1025.3 hPa WSW 7.2 km/h 11.1 km/h 86 % 0 mm
09:08 7.3 °C 5.1 °C 1025.3 hPa SW 8 km/h 13 km/h 86 % 0 mm
09:13 7.3 °C 5 °C 1025.3 hPa SSW 13 km/h 22.2 km/h 85 % 0 mm
09:18 7.4 °C 5.1 °C 1025.3 hPa SW 5.6 km/h 11.1 km/h 85 % 0 mm
09:23 7.6 °C 5 °C 1025.3 hPa SSW 12.7 km/h 18.5 km/h 84 % 0 mm
09:28 7.7 °C 5.2 °C 1025.6 hPa SW 8.5 km/h 18.5 km/h 84 % 0 mm
09:33 7.9 °C 5.2 °C 1025.6 hPa SSW 12.1 km/h 18.5 km/h 83 % 0 mm
09:38 8.1 °C 5.3 °C 1025.6 hPa WSW 6.9 km/h 9.3 km/h 83 % 0 mm
09:43 8.2 °C 5.3 °C 1025.6 hPa SW 10.8 km/h 18.5 km/h 82 % 0 mm
09:48 8.3 °C 5.4 °C 1026 hPa WSW 9.5 km/h 16.7 km/h 82 % 0 mm
09:53 8.6 °C 5.5 °C 1026 hPa WSW 9.3 km/h 14.8 km/h 81 % 0 mm
09:58 8.7 °C 5.4 °C 1025.6 hPa SW 6.3 km/h 11.1 km/h 80 % 0 mm
10:03 8.9 °C 5.6 °C 1025.6 hPa SW 9.7 km/h 14.8 km/h 80 % 0 mm
10:08 9.1 °C 5.6 °C 1025.6 hPa SW 6.9 km/h 12.9 km/h 79 % 0 mm
10:13 9.2 °C 5.6 °C 1025.6 hPa SSW 7.6 km/h 11.1 km/h 78 % 0 mm
10:18 9.3 °C 5.7 °C 1025.6 hPa SW 9 km/h 14.8 km/h 78 % 0 mm
10:23 9.5 °C 5.7 °C 1025.6 hPa SW 8.5 km/h 18.5 km/h 77 % 0 mm
10:29 9.7 °C 5.8 °C 1025.6 hPa SW 3.1 km/h 5.6 km/h 77 % 0 mm
10:34 9.8 °C 5.7 °C 1025.3 hPa SSW 6.1 km/h 8 km/h 76 % 0 mm
10:39 9.9 °C 5.9 °C 1025.6 hPa WSW 6.4 km/h 9.3 km/h 76 % 0 mm
10:44 10 °C 5.6 °C 1025.6 hPa WSW 10.6 km/h 14.8 km/h 74 % 0 mm
10:49 10.1 °C 5.6 °C 1025.6 hPa West 2.7 km/h 7.4 km/h 74 % 0 mm
10:54 10.2 °C 5.7 °C 1025.6 hPa WSW 5.8 km/h 6.4 km/h 74 % 0 mm
10:59 10.2 °C 5.8 °C 1025.6 hPa WNW 3.4 km/h 5.6 km/h 74 % 0 mm
11:04 10.3 °C 5.7 °C 1026 hPa WNW 3.2 km/h 9.7 km/h 73 % 0 mm
11:09 10.3 °C 5.7 °C 1025.6 hPa WNW 3.2 km/h 12.9 km/h 73 % 0 mm
11:14 10.3 °C 5.5 °C 1026 hPa WNW 1.4 km/h 5.6 km/h 72 % 0 mm
11:19 10.3 °C 5.5 °C 1026 hPa West 3.2 km/h 9.7 km/h 72 % 0 mm
11:24 10.3 °C 5.3 °C 1025.6 hPa West 3.2 km/h 9.7 km/h 71 % 0 mm
11:29 10.3 °C 5.3 °C 1025.6 hPa West 4.8 km/h 11.3 km/h 71 % 0 mm
11:34 10.3 °C 5.5 °C 1025.6 hPa West 5.8 km/h 6.4 km/h 72 % 0 mm
11:39 10.4 °C 5.6 °C 1025.3 hPa West 1.6 km/h 8 km/h 72 % 0 mm
11:44 10.4 °C 5.3 °C 1025.3 hPa West 4 km/h 5.6 km/h 71 % 0 mm
11:49 10.3 °C 5.1 °C 1025.3 hPa WNW 1.6 km/h 11.3 km/h 70 % 0 mm
11:54 10.3 °C 5.3 °C 1025.3 hPa WSW 6 km/h 6 km/h 71 % 0 mm
11:59 10.3 °C 5.3 °C 1025.6 hPa SW 0.6 km/h 11.1 km/h 71 % 0 mm
12:04 10.4 °C 5.6 °C 1025.3 hPa WSW 2.3 km/h 7.4 km/h 72 % 0 mm
12:09 10.5 °C 5.4 °C 1025.3 hPa SW 3.5 km/h 7.4 km/h 71 % 0 mm
12:14 10.6 °C 5.7 °C 1024.9 hPa South 1.8 km/h 5.6 km/h 72 % 0 mm
12:19 10.7 °C 5.7 °C 1024.9 hPa SSW 1.8 km/h 5.6 km/h 71 % 0 mm
12:24 10.8 °C 5.6 °C 1024.9 hPa West 2.4 km/h 6.4 km/h 70 % 0 mm
12:29 10.9 °C 5.5 °C 1024.9 hPa SW 4.7 km/h 9.3 km/h 69 % 0 mm
12:34 11.1 °C 5.4 °C 1024.9 hPa WNW 7.7 km/h 13 km/h 68 % 0 mm
12:40 11.1 °C 5.4 °C 1024.6 hPa SW 3.9 km/h 9.3 km/h 68 % 0 mm
12:45 11.1 °C 5.4 °C 1024.6 hPa SW 7.6 km/h 9.3 km/h 68 % 0 mm
12:50 11.2 °C 5.5 °C 1024.6 hPa West 1.4 km/h 3.7 km/h 68 % 0 mm
12:55 11.2 °C 5.6 °C 1024.9 hPa SSW 3.5 km/h 5.6 km/h 68 % 0 mm
13:00 11.3 °C 5.6 °C 1024.9 hPa SSW 8.7 km/h 12.9 km/h 68 % 0 mm
13:05 11.4 °C 5.7 °C 1024.6 hPa SSW 2.6 km/h 9.3 km/h 68 % 0 mm
13:10 11.5 °C 5.8 °C 1024.6 hPa WNW 4.3 km/h 7.4 km/h 68 % 0 mm
13:15 11.6 °C 5.8 °C 1024.9 hPa SW 4 km/h 13 km/h 68 % 0 mm
13:20 11.7 °C 5.9 °C 1024.9 hPa WSW 2.6 km/h 11.1 km/h 68 % 0 mm
13:25 11.6 °C 5.9 °C 1024.9 hPa SW 6.8 km/h 11.3 km/h 68 % 0 mm
13:30 11.6 °C 5.8 °C 1024.9 hPa South 6.4 km/h 11.1 km/h 68 % 0 mm
13:35 11.6 °C 5.9 °C 1024.9 hPa SW 5 km/h 7.4 km/h 68 % 0 mm
13:40 11.6 °C 5.9 °C 1024.9 hPa SSW 2.4 km/h 5.6 km/h 68 % 0 mm
13:45 11.6 °C 5.8 °C 1024.9 hPa SSW 7.4 km/h 11.1 km/h 68 % 0 mm
13:50 11.6 °C 5.9 °C 1024.9 hPa SW 8 km/h 11.1 km/h 68 % 0 mm
13:55 11.7 °C 5.9 °C 1024.6 hPa WSW 5.5 km/h 11.1 km/h 68 % 0 mm
14:03 11.7 °C 5.6 °C 1024.6 hPa WSW 6.4 km/h 6.4 km/h 66 % 0 mm
14:08 11.8 °C 5.7 °C 1024.9 hPa WNW 3.4 km/h 7.4 km/h 66 % 0 mm
14:13 11.9 °C 5.7 °C 1024.9 hPa North 2.7 km/h 4.8 km/h 66 % 0 mm
14:18 11.8 °C 5.4 °C 1024.6 hPa WSW 3.1 km/h 11.1 km/h 65 % 0 mm
14:23 11.8 °C 5.4 °C 1024.6 hPa West 6.6 km/h 11.1 km/h 65 % 0 mm
14:28 11.8 °C 5.4 °C 1024.9 hPa SSW 0.8 km/h 7.4 km/h 65 % 0 mm
14:33 11.8 °C 5.4 °C 1024.6 hPa SW 1.9 km/h 3.7 km/h 65 % 0 mm
14:38 11.8 °C 5.4 °C 1024.6 hPa West 3.1 km/h 5.6 km/h 65 % 0 mm
14:43 11.7 °C 5.3 °C 1024.6 hPa West 0.5 km/h 5.6 km/h 65 % 0 mm
14:48 11.7 °C 5.3 °C 1024.6 hPa West 1.6 km/h 3.7 km/h 65 % 0 mm
14:53 11.7 °C 5.3 °C 1024.6 hPa WSW 0.3 km/h 1.9 km/h 65 % 0 mm
14:58 11.7 °C 5.3 °C 1024.9 hPa SSW 1.4 km/h 3.7 km/h 65 % 0 mm
15:03 11.7 °C 5.5 °C 1024.6 hPa SSW 0.3 km/h 3.7 km/h 66 % 0 mm
15:09 11.6 °C 5 °C 1024.6 hPa South 5 km/h 6.4 km/h 64 % 0 mm
15:14 11.6 °C 5.4 °C 1024.6 hPa South 0.2 km/h 4.8 km/h 66 % 0 mm
15:19 11.5 °C 5.4 °C 1024.6 hPa South 0.6 km/h 3.7 km/h 66 % 0 mm
15:24 11.4 °C 5.1 °C 1024.6 hPa SSE 0.6 km/h   65 % 0 mm
15:29 11.4 °C 5.1 °C 1024.3 hPa South 2.7 km/h 5.6 km/h 65 % 0 mm
15:34 11.3 °C 5.2 °C 1024.6 hPa Calm   4.8 km/h 66 % 0 mm
15:39 11.2 °C 5.1 °C 1024.6 hPa Calm   3.2 km/h 66 % 0 mm
15:44 11.2 °C 5.1 °C 1024.3 hPa South 1.6 km/h 4.8 km/h 66 % 0 mm
15:49 11 °C 5.1 °C 1024.3 hPa Calm   3.2 km/h 67 % 0 mm
15:54 10.9 °C 5.1 °C 1024.3 hPa SSE 1.6 km/h 4.8 km/h 67 % 0 mm
15:59 10.8 °C 4.9 °C 1024.3 hPa Calm     67 % 0 mm
16:04 10.7 °C 4.8 °C 1024.3 hPa Calm   3.2 km/h 67 % 0 mm
16:09 10.6 °C 4.9 °C 1024.3 hPa SSE 1.6 km/h 4.8 km/h 68 % 0 mm
16:14 10.5 °C 4.8 °C 1024.3 hPa Calm   3.2 km/h 68 % 0 mm
16:19 10.4 °C 4.9 °C 1024.6 hPa Calm   3.2 km/h 69 % 0 mm
16:24 10.2 °C 4.8 °C 1024.6 hPa South 0.2 km/h   69 % 0 mm
16:29 10.1 °C 4.6 °C 1024.9 hPa South 1.6 km/h 3.2 km/h 69 % 0 mm
16:34 9.8 °C 4.6 °C 1024.6 hPa Calm   6.4 km/h 70 % 0 mm
16:39 9.6 °C 4.6 °C 1024.6 hPa SSE 3.2 km/h 8 km/h 71 % 0 mm
16:44 9.5 °C 4.9 °C 1024.6 hPa South 3.2 km/h 8 km/h 73 % 0 mm
16:49 9.3 °C 4.9 °C 1024.6 hPa South 4.8 km/h 14.5 km/h 74 % 0 mm
16:54 9.2 °C 4.9 °C 1024.6 hPa South 1.6 km/h 8 km/h 75 % 0 mm
16:59 8.9 °C 4.9 °C 1024.6 hPa South 3.5 km/h 9.3 km/h 76 % 0 mm
17:04 8.7 °C 4.7 °C 1024.6 hPa South 2.9 km/h 5.6 km/h 76 % 0 mm
17:09 8.6 °C 4.8 °C 1024.6 hPa South 4.3 km/h 9.7 km/h 77 % 0 mm
17:14 8.3 °C 4.7 °C 1024.6 hPa SSW 4.5 km/h 9.3 km/h 78 % 0 mm
17:19 8.1 °C 4.6 °C 1024.6 hPa SSE 5 km/h 7.4 km/h 79 % 0 mm
17:24 7.9 °C 4.4 °C 1024.6 hPa SE 6.3 km/h 11.1 km/h 79 % 0 mm
17:29 7.7 °C 4.5 °C 1024.6 hPa SSW 3.4 km/h 8 km/h 80 % 0 mm
17:34 7.6 °C 4.6 °C 1024.6 hPa South 5 km/h 8 km/h 81 % 0 mm
17:40 7.4 °C 4.6 °C 1024.3 hPa South 5.8 km/h 11.1 km/h 82 % 0 mm
17:45 7.3 °C 4.6 °C 1024.6 hPa South 6.4 km/h 11.1 km/h 83 % 0 mm
17:50 7.2 °C 4.4 °C 1024.6 hPa SSW 5.6 km/h 9.3 km/h 83 % 0 mm
17:55 7.1 °C 4.6 °C 1024.3 hPa South 6.8 km/h 9.7 km/h 84 % 0 mm
18:00 7 °C 4.7 °C 1024.3 hPa South 5.3 km/h 8 km/h 85 % 0 mm
18:05 6.9 °C 4.8 °C 1024.6 hPa SSW 4.2 km/h 13 km/h 86 % 0 mm
18:10 6.8 °C 4.8 °C 1024.6 hPa SSE 5.3 km/h 9.3 km/h 87 % 0 mm
18:15 6.8 °C 4.8 °C 1024.9 hPa South 6.6 km/h 11.1 km/h 87 % 0 mm
18:16 6.8 °C 4.8 °C 1024.6 hPa South 3.4 km/h 11.1 km/h 87 % 0 mm
18:21 6.8 °C 4.9 °C 1024.9 hPa SSE 9.2 km/h 14.8 km/h 88 % 0 mm
18:26 6.8 °C 4.9 °C 1024.9 hPa South 3.9 km/h 11.1 km/h 88 % 0 mm
18:31 6.7 °C 4.9 °C 1024.9 hPa South 6.3 km/h 11.3 km/h 88 % 0 mm
18:36 6.8 °C 5.1 °C 1024.9 hPa SSW 5.8 km/h 11.1 km/h 89 % 0 mm
18:41 6.8 °C 5.3 °C 1024.9 hPa SSW 7.2 km/h 13 km/h 90 % 0 mm
18:46 6.8 °C 5.3 °C 1024.9 hPa South 4 km/h 5.6 km/h 90 % 0 mm
18:52 6.8 °C 5.3 °C 1024.6 hPa South 4.7 km/h 7.4 km/h 90 % 0 mm
18:57 6.8 °C 5.3 °C 1024.6 hPa SE 6.8 km/h 9.3 km/h 90 % 0 mm
19:02 6.8 °C 5.4 °C 1024.6 hPa South 7.4 km/h 9.3 km/h 91 % 0 mm
19:07 6.8 °C 5.4 °C 1024.6 hPa SSE 1.8 km/h 9.3 km/h 91 % 0 mm
19:12 6.8 °C 5.4 °C 1024.6 hPa SSE 2.7 km/h 6.4 km/h 91 % 0 mm
19:17 6.8 °C 5.4 °C 1024.6 hPa SSE 1.4 km/h 5.6 km/h 91 % 0 mm
19:22 6.8 °C 5.4 °C 1024.3 hPa South 1.9 km/h 5.6 km/h 91 % 0 mm
19:27 6.8 °C 5.4 °C 1024.6 hPa South 0.8 km/h 4.8 km/h 91 % 0 mm
19:32 6.8 °C 5.4 °C 1024.6 hPa South 4.5 km/h 11.3 km/h 91 % 0 mm
19:37 6.8 °C 5.6 °C 1024.3 hPa South 1 km/h 1.9 km/h 92 % 0 mm
19:42 6.8 °C 5.6 °C 1024.6 hPa SW 7.2 km/h 9.3 km/h 92 % 0 mm
19:47 6.9 °C 5.7 °C 1023.9 hPa South 1.3 km/h 5.6 km/h 92 % 0 mm
19:52 6.9 °C 5.9 °C 1023.6 hPa South 5.3 km/h 9.3 km/h 93 % 0 mm
19:57 7.1 °C 6 °C 1023.2 hPa SE 1.8 km/h 5.6 km/h 93 % 0 mm
20:02 7.1 °C 6.1 °C 1022.9 hPa SSE 4 km/h 5.6 km/h 93 % 0 mm
20:07 7.1 °C 5.9 °C 1023.2 hPa SE 1.3 km/h 5.6 km/h 92 % 0 mm
20:12 7.1 °C 5.9 °C 1023.6 hPa SW 1.9 km/h 5.6 km/h 92 % 0 mm
20:17 7.2 °C 5.9 °C 1023.6 hPa Calm     92 % 0 mm
20:22 7.2 °C 5.9 °C 1023.6 hPa Calm   1.9 km/h 92 % 0 mm
20:28 7.2 °C 5.9 °C 1023.6 hPa SW 2.7 km/h 5.6 km/h 92 % 0 mm
20:33 7.2 °C 5.9 °C 1023.6 hPa Calm   1.9 km/h 92 % 0 mm
20:38 7.2 °C 6 °C 1023.6 hPa Calm     92 % 0 mm
20:43 7.2 °C 6 °C 1023.6 hPa Calm   1.9 km/h 92 % 0 mm
20:48 7.3 °C 6.1 °C 1023.6 hPa WSW 0.2 km/h 5.6 km/h 92 % 0 mm
20:53 7.3 °C 6.1 °C 1023.2 hPa Calm     92 % 0 mm
20:58 7.3 °C 5.9 °C 1023.2 hPa Calm   5.6 km/h 91 % 0 mm
21:03 7.3 °C 5.9 °C 1023.6 hPa Calm   3.7 km/h 91 % 0 mm
21:08 7.3 °C 5.9 °C 1023.6 hPa WSW 2.9 km/h 7.4 km/h 91 % 0 mm
21:13 7.3 °C 5.9 °C 1023.6 hPa WSW 0.8 km/h 1.9 km/h 91 % 0 mm
21:18 7.3 °C 5.8 °C 1023.2 hPa Calm   1.9 km/h 90 % 0 mm
21:23 7.3 °C 5.8 °C 1023.6 hPa Calm     90 % 0 mm
21:28 7.3 °C 5.8 °C 1023.6 hPa Calm   1.9 km/h 90 % 0 mm
21:33 7.3 °C 5.7 °C 1023.6 hPa WSW 0.2 km/h 3.7 km/h 90 % 0 mm
21:38 7.2 °C 5.7 °C 1023.9 hPa Calm     90 % 0 mm
21:43 7.2 °C 5.6 °C 1023.9 hPa WSW 0.6 km/h 1.9 km/h 90 % 0 mm
21:48 7.2 °C 5.6 °C 1023.9 hPa WSW 1.3 km/h 3.7 km/h 90 % 0 mm
21:53 7.1 °C 5.6 °C 1023.9 hPa SW 4.7 km/h 5.6 km/h 90 % 0 mm
21:58 7.1 °C 5.7 °C 1023.9 hPa SW 1.6 km/h 5.6 km/h 91 % 0 mm
22:04 7.1 °C 5.7 °C 1023.9 hPa WSW 2.4 km/h 6.4 km/h 91 % 0 mm
22:09 7.1 °C 5.7 °C 1023.9 hPa Calm     91 % 0 mm
22:14 7.2 °C 5.9 °C 1023.9 hPa SW 2.1 km/h 5.6 km/h 92 % 0 mm
22:19 7.1 °C 5.9 °C 1023.6 hPa Calm     92 % 0 mm
22:24 7.2 °C 5.9 °C 1023.6 hPa West 1.9 km/h 5.6 km/h 92 % 0.25 mm
22:29 7.2 °C 6.1 °C 1023.6 hPa Calm   3.2 km/h 93 % 0 mm
22:34 7.2 °C 6.1 °C 1023.2 hPa Calm   1.6 km/h 93 % 0 mm
22:39 7.2 °C 6.2 °C 1023.2 hPa Calm   4.8 km/h 93 % 0 mm
22:44 7.2 °C 6.2 °C 1022.9 hPa Calm   4.8 km/h 93 % 0 mm
22:49 7.3 °C 6.4 °C 1022.9 hPa SSW 1.6 km/h 6.4 km/h 94 % 0 mm
22:54 7.4 °C 6.6 °C 1022.6 hPa South 1.6 km/h 6.4 km/h 94 % 0 mm
22:59 7.6 °C 6.8 °C 1022.2 hPa SE 0.2 km/h 1.9 km/h 95 % 1.27 mm
23:04 7.6 °C 6.9 °C 1022.2 hPa South 5.6 km/h 11.1 km/h 95 % 1.27 mm
23:09 7.7 °C 6.9 °C 1021.9 hPa SSE 3.5 km/h 7.4 km/h 95 % 1.52 mm
23:14 7.8 °C 7 °C 1021.9 hPa SSE 4.7 km/h 5.6 km/h 95 % 1.52 mm
23:19 7.9 °C 7.1 °C 1021.9 hPa South 1.8 km/h 9.3 km/h 95 % 1.27 mm
23:24 7.9 °C 7.1 °C 1021.9 hPa SSW 3.4 km/h 6.4 km/h 95 % 1.52 mm
23:29 7.9 °C 7.2 °C 1021.9 hPa WSW 4.3 km/h 9.7 km/h 95 % 1.27 mm
23:34 8 °C 7.2 °C 1021.9 hPa SSW 3.5 km/h 8 km/h 95 % 1.27 mm
23:40 8.1 °C 7.4 °C 1021.6 hPa SW 5.3 km/h 7.4 km/h 96 % 1.27 mm
23:45 8.1 °C 7.5 °C 1021.6 hPa SW 3.5 km/h 9.3 km/h 96 % 1.27 mm
23:50 8.2 °C 7.6 °C 1021.6 hPa SSW 1.6 km/h 5.6 km/h 96 % 1.02 mm
23:55 8.2 °C 7.6 °C 1021.6 hPa South 3.9 km/h 9.3 km/h 96 % 1.27 mm
Crab Meadow Weather
Compliments of Weather Underground - 3 mb

Script developed by  Jim McMurry - jmcmurry@mwt.net Adapted for the template by  Wim van der Kuil - Leuven-Template.eu

Clouds: Partly sunny and partly cloudy indicate the same amount of cloud coverage - about 50 percent. Partly sunny is used during the daytime, and partly cloudy is used at night when there is no sun.